This demonstration page uses our WeatherBlox Daily Observations layout. Learn more.

Left ArrowRight Arrow

Hourly Observations for December 5, 2022

Temp ( °F °C ) Dew Point ( °F °C ) Humidity (%) Winds ( mph kmh ) Pressure ( in mb ) Visibility ( mi km ) Precip ( " mm )
12:53 am 00:53 Cloudy with Mist and Fog 52 11.1 51 10.6 97 97 S 6 9 29.99 1016 6 10 0.00 0.00
1:53 am 01:53 Cloudy with Mist and Fog 53 11.7 51 10.6 93 93 SSE 9 15 29.97 1015 6 10 0.00 0.00
2:53 am 02:53 Cloudy with Mist and Fog 53 11.7 52 11.1 96 96 S 7 11 29.95 1014 6 10 0.00 0.00
3:07 am 03:07 Cloudy with Mist and Fog 54 12.2 52 11.1 93 93 SSE 7 11 29.95 1014 6 10 0.00 0.00
3:17 am 03:17 Cloudy with Mist and Fog 54 12.2 52 11.1 93 93 S 7 11 29.95 1014 6 10 0.00 0.00
3:53 am 03:53 Cloudy with Mist and Fog 55 12.8 53 11.7 93 93 SSE 6 9 29.92 1013 6 10 0.00 0.00
4:05 am 04:05 Cloudy 55 12.8 53 11.7 93 93 SSE 7 11 29.92 1013 7 11 0.00 0.00
4:53 am 04:53 Cloudy with Drizzle 56 13.3 54 12.2 93 93 SSE 8 13 29.90 1013 6 10 0.01 0.13
5:53 am 05:53 Cloudy with Drizzle 56 13.3 54 12.2 93 93 S 7 11 29.91 1013 6 10 0.01 0.13
6:53 am 06:53 Cloudy 56 13.3 55 12.8 97 97 SSE 8 13 29.88 1012 7 11 0.01 0.13
7:53 am 07:53 Cloudy 57 13.9 55 12.8 93 93 SSE 8 13 29.89 1012 8 13 0.00 0.00
8:53 am 08:53 Mostly Cloudy with Light Rain 60 15.6 57 13.9 90 90 S 7 11 29.88 1012 9 14 0.01 0.13
9:36 am 09:36 Mostly Cloudy 64 17.8 59 15 84 84 SSW 8 13 29.88 1012 10 16 0.01 0.13
9:53 am 09:53 Mostly Cloudy 66 18.9 60 15.6 81 81 SSW 14 22 29.88 1012 10 16 0.01 0.13
10:41 am 10:41 Mostly Cloudy 68 20 60 15.6 76 76 SSW 12 19 29.85 1011 10 16 0.00 0.00
10:53 am 10:53 Mostly Cloudy 68 20 61 16.1 78 78 SSW 12 19 29.84 1011 10 16 0.00 0.00
11:53 am 11:53 Mostly Cloudy 68 20 61 16.1 78 78 SSW 10 17 29.83 1010 10 16 0.00 0.00
12:53 pm 12:53 Partly Cloudy 72 22.2 62 16.7 71 71 SSW 10 17 29.80 1009 10 16 0.00 0.00
1:53 pm 13:53 Mostly Sunny 76 24.4 62 16.7 62 62 SW 10 17 29.76 1008 10 16 0.00 0.00
2:53 pm 14:53 Mostly Sunny 78 25.6 62 16.7 58 58 S 14 22 29.73 1007 10 16 0.00 0.00
3:53 pm 15:53 Mostly Sunny 79 26.1 63 17.2 58 58 SSW 13 20 29.73 1007 10 16 0.00 0.00
4:53 pm 16:53 Partly Cloudy 78 25.6 62 16.7 58 58 SSW 8 13 29.72 1007 10 16 0.00 0.00
5:53 pm 17:53 Partly Cloudy 75 23.9 64 17.8 69 69 S 12 19 29.74 1007 10 16 0.00 0.00
6:53 pm 18:53 Mostly Cloudy 72 22.2 64 17.8 76 76 S 10 17 29.75 1008 10 16 0.00 0.00
7:53 pm 19:53 Mostly Cloudy 72 22.2 63 17.2 73 73 S 7 11 29.78 1008 10 16 0.00 0.00
8:53 pm 20:53 Mostly Cloudy 71 21.7 63 17.2 76 76 S 9 15 29.78 1009 10 16 0.00 0.00
9:53 pm 21:53 Mostly Cloudy 71 21.7 63 17.2 76 76 S 12 19 29.78 1009 10 16 0.00 0.00
10:53 pm 22:53 Partly Cloudy 70 21.1 63 17.2 78 78 SSW 13 20 29.78 1009 10 16 0.00 0.00
11:53 pm 23:53 Mostly Cloudy 70 21.1 62 16.7 76 76 SSW 12 19 29.79 1009 10 16 0.00 0.00

Powered by AerisWeather